Weather History for KDMA - December, 2013

Change the Weather History Date:

Thursday, December 19, 2013

  Actual Average Record
Temperature  
Mean Temperature 56 °F -  
Max Temperature 68 °F 65 °F 79 °F (1955)
Min Temperature 45 °F 40 °F 31 °F (1968)
Degree Days  
Heating Degree Days 8    
Growing Degree Days 6 (Base 50)    
Moisture  
Dew Point 27 °F    
Average Humidity 33    
Maximum Humidity 66    
Minimum Humidity 16    
Precipitation  
Precipitation 0.00 in - - ()
Sea Level Pressure  
Sea Level Pressure 29.73 in    
Wind  
Wind Speed 7 mph (South)    
Max Wind Speed 18 mph    
Max Gust Speed 26 mph    
Visibility 10 miles    
Events      
Averages and records for this station are not official NWS values.
T = Trace of Precipitation, MM = Missing Value Source: NWS Daily Summary

Daily Weather History Graph

Daily Weather History Graph

Search for Another Location

Airport or City:

Trip Planner

Search our weather history database for the weather conditions in past years. The results will help you decide how hot, cold, wet, or windy it might be!

Date:

Astronomy

Dec. 19, 2013 Rise Set
Actual Time 7:19 AM MST 5:22 PM MST
Civil Twilight 6:52 AM MST 5:49 PM MST
Nautical Twilight 6:21 AM MST 6:19 PM MST
Astronomical Twilight 5:51 AM MST 6:49 PM MST
Moon 7:43 PM MST (12/19) 8:46 AM MST (12/19)
Length of Visible Light 10h 56m
Length of Day
10h 02m
Waning Gibbous, 95% of the Moon is Illuminated
Dec 19
Waning Gibbous
Dec 25
Last Quarter
Jan 1
New
Jan 7
First Quarter
Jan 15
Full

Hourly Weather History & Observations

Time (MST) Temp. Windchill Dew Point Humidity Pressure Visibility Wind Dir Wind Speed Gust Speed Precip Events Conditions
12:58 AM 54.1 °F - 28.9 °F 38% 29.79 in 10.0 mi SSE 4.6 mph - N/A   Clear
1:58 AM 54.5 °F - 28.0 °F 36% 29.77 in 10.0 mi SSE 2.3 mph - N/A   Clear
2:58 AM 55.9 °F - 26.4 °F 32% 29.87 in 10.0 mi South 8.1 mph - N/A   Clear
3:58 AM 51.1 °F - 27.1 °F 40% 29.87 in 10.0 mi SE 4.6 mph - N/A   Clear
4:58 AM 52.0 °F - 25.9 °F 36% 29.76 in 10.0 mi ESE 4.6 mph - N/A   Clear
5:58 AM 46.6 °F - 28.2 °F 49% 29.78 in 10.0 mi ESE 5.8 mph - N/A   Clear
6:58 AM 45.7 °F 44.4 °F 28.2 °F 51% 29.80 in 10.0 mi SE 3.5 mph - N/A   Clear
7:58 AM 46.4 °F 42.4 °F 28.8 °F 50% 29.80 in 10.0 mi ESE 8.1 mph - N/A   Clear
8:58 AM 55.0 °F - 26.4 °F 33% 29.79 in 10.0 mi ESE 5.8 mph - N/A   Clear
9:58 AM 61.9 °F - 26.1 °F 26% 29.78 in 10.0 mi South 5.8 mph - N/A   Clear
10:58 AM 63.5 °F - 24.4 °F 23% 29.76 in 10.0 mi South 18.4 mph 25.3 mph N/A   Clear
11:58 AM 65.8 °F - 24.1 °F 21% 29.73 in 10.0 mi South 15.0 mph 23.0 mph N/A   Clear
12:58 PM 67.5 °F - 23.9 °F 19% 29.70 in 10.0 mi South 10.4 mph 21.9 mph N/A   Clear
1:58 PM 68.4 °F - 20.8 °F 16% 29.65 in 10.0 mi SSW 18.4 mph 23.0 mph N/A   Clear
2:58 PM 68.0 °F - 21.9 °F 17% 29.65 in 10.0 mi SSW 12.7 mph 25.3 mph N/A   Clear
3:58 PM 66.9 °F - 25.0 °F 21% 29.65 in 10.0 mi SSW 16.1 mph 26.5 mph N/A   Clear
4:58 PM 65.3 °F - 27.0 °F 24% 29.65 in 10.0 mi SSW 10.4 mph - N/A   Clear
5:58 PM 62.2 °F - 26.2 °F 25% 29.68 in 10.0 mi SSE 11.5 mph - N/A   Partly Cloudy
6:58 PM 60.3 °F - 25.5 °F 27% 29.68 in 10.0 mi SSE 5.8 mph - N/A   Clear
7:58 PM 59.7 °F - 27.0 °F 29% 29.69 in 10.0 mi South 6.9 mph - N/A   Clear
8:58 PM 57.2 °F - 29.3 °F 35% 29.68 in 10.0 mi SW 9.2 mph - N/A   Clear
9:58 PM 57.6 °F - 28.2 °F 33% 29.67 in 10.0 mi WSW 6.9 mph - N/A   Clear
10:58 PM 55.0 °F - 28.0 °F 35% 29.68 in 10.0 mi SW 5.8 mph - N/A   Clear
11:58 PM 51.6 °F - 40.5 °F 66% 29.67 in 10.0 mi NNW 5.8 mph - N/A   Mostly Cloudy